Location: Stoke Bliss
(52.2667°N, 2.5167°W)
Time: 18:56:17
(UTC+00:00)

USA 306 - Pass Details

Date: 03 March 2021
Orbit: 564 x 577 km, 54.0° (Epoch: 17 April)

Event Time Altitude Azimuth Distance (km) Brightness Sun altitude
Rises 19:58:20 0° 279° (W) 2,773 8.0 -19.8°
Reaches altitude 10° 20:00:36 10° 281° (WNW) 1,873 6.7 -20.1°
Maximum altitude 20:04:51 71° 6° (N) 604 2.9 -20.7°
Enters shadow 20:05:36 56° 65° (ENE) 679 2.9 -20.8°
